�������l�o���
Date,Time,MP-1(��Sv/h),MP-2(��Sv/h),MP-3(��Sv/h),MP-4(��Sv/h),MP-5(��Sv/h),MP-6(��Sv/h),MP-7(��Sv/h),MP-8(��Sv/h),����,����(m/s),���J
2014/08/08,00:00,2.3,4.2,4.7,4.1,4.5,1.5,2.2,2.4,��쓌,0.7,��
2014/08/08,00:10,2.3,4.2,4.7,4.1,4.5,1.5,2.2,2.4,��쓌,0.9,��
2014/08/08,00:20,2.3,4.2,4.7,4.1,4.5,1.5,2.2,2.4,��쓌,1.2,��
2014/08/08,00:30,2.3,4.2,4.7,4.1,4.5,1.5,2.2,2.4,��쓌,2.0,��
2014/08/08,00:40,2.3,4.2,4.7,4.1,4.5,1.5,2.2,2.4,��쓌,2.2,��
2014/08/08,00:50,2.3,4.2,4.7,4.1,4.5,1.5,2.2,2.4,��,2.0,��
2014/08/08,01:00,2.3,4.2,4.7,4.1,4.5,1.5,2.2,2.4,��,3.5,��
2014/08/08,01:10,2.3,4.2,4.7,4.1,4.5,1.5,2.2,2.4,��,3.8,��
2014/08/08,01:20,2.3,4.2,4.7,4.1,4.5,1.5,2.2,2.4,��,5.1,��
2014/08/08,01:30,2.3,4.2,4.7,4.1,4.5,1.5,2.2,2.4,��,6.1,��
2014/08/08,01:40,2.3,4.2,4.7,4.1,4.5,1.5,2.2,2.4,��,4.1,��
2014/08/08,01:50,2.3,4.2,4.7,4.1,4.5,1.5,2.2,2.4,�쐼,3.9,��
2014/08/08,02:00,2.3,4.2,4.7,4.1,4.5,1.5,2.2,2.4,�쐼,2.4,��
2014/08/08,02:10,2.3,4.2,4.7,4.1,4.5,1.5,2.2,2.4,���쐼,1.4,��
2014/08/08,02:20,2.3,4.2,4.7,4.1,4.5,1.5,2.2,2.4,-,CALM,��
2014/08/08,02:30,2.3,4.2,4.7,4.1,4.5,1.5,2.2,2.4,-,CALM,��
2014/08/08,02:40,2.3,4.2,4.7,4.1,4.5,1.5,2.2,2.4,-,CALM,��
2014/08/08,02:50,2.3,4.2,4.7,4.1,4.5,1.5,2.2,2.4,-,CALM,��
2014/08/08,03:00,2.3,4.2,4.7,4.1,4.5,1.5,2.2,2.4,��쓌,0.5,��
2014/08/08,03:10,2.3,4.2,4.7,4.1,4.5,1.5,2.2,2.4,��쓌,1.3,��
2014/08/08,03:20,2.3,4.2,4.7,4.1,4.5,1.5,2.2,2.4,��,1.7,��
2014/08/08,03:30,2.3,4.2,4.7,4.1,4.5,1.5,2.2,2.4,��,2.9,��
2014/08/08,03:40,2.3,4.2,4.7,4.1,4.5,1.5,2.2,2.4,��,3.0,��
2014/08/08,03:50,2.3,4.2,4.7,4.1,4.5,1.5,2.2,2.4,��쐼,4.3,��
2014/08/08,04:00,2.3,4.2,4.7,4.1,4.5,1.5,2.2,2.4,��,5.0,��
2014/08/08,04:10,2.3,4.2,4.7,4.1,4.5,1.5,2.2,2.4,��,4.8,��
2014/08/08,04:20,2.3,4.2,4.7,4.1,4.5,1.5,2.2,2.4,��,5.1,��
2014/08/08,04:30,2.3,4.2,4.7,4.1,4.5,1.5,2.2,2.4,��쐼,4.6,��
2014/08/08,04:40,2.3,4.2,4.7,4.1,4.5,1.5,2.2,2.4,��쐼,5.1,��
2014/08/08,04:50,2.3,4.2,4.7,4.1,4.5,1.5,2.2,2.4,��쐼,5.3,��
2014/08/08,05:00,2.3,4.2,4.7,4.1,4.5,1.5,2.2,2.4,��쐼,5.3,��
2014/08/08,05:10,2.3,4.2,4.7,4.1,4.5,1.5,2.2,2.4,��쐼,4.6,��
2014/08/08,05:20,2.3,4.2,4.7,4.1,4.5,1.5,2.2,2.4,��쐼,4.4,��
2014/08/08,05:30,2.3,4.2,4.7,4.1,4.5,1.5,2.2,2.4,��쐼,3.3,��
2014/08/08,05:40,2.3,4.2,4.7,4.1,4.5,1.5,2.2,2.4,��쐼,2.9,��
2014/08/08,05:50,2.3,4.2,4.7,4.1,4.5,1.5,2.2,2.4,��쐼,1.2,��
2014/08/08,06:00,2.3,4.2,4.7,4.1,4.5,1.5,2.2,2.4,-,CALM,��
2014/08/08,06:10,2.3,4.2,4.7,4.1,4.5,1.5,2.2,2.4,��,1.2,��
2014/08/08,06:20,2.3,4.2,4.7,4.1,4.5,1.5,2.2,2.4,���쓌,1.6,��
2014/08/08,06:30,2.3,4.2,4.7,4.1,4.5,1.5,2.2,2.4,���쓌,0.8,��
2014/08/08,06:40,2.3,4.2,4.7,4.1,4.5,1.5,2.2,2.4,�쓌,0.8,��
2014/08/08,06:50,2.3,4.2,4.7,4.1,4.5,1.5,2.2,2.4,-,CALM,��
2014/08/08,07:00,2.3,4.2,4.7,4.1,4.5,1.5,2.2,2.4,��쓌,0.9,��
2014/08/08,07:10,2.3,4.2,4.7,4.1,4.5,1.5,2.2,2.4,��쓌,1.3,��
2014/08/08,07:20,2.3,4.2,4.7,4.1,4.5,1.5,2.2,2.4,��쐼,0.8,��
2014/08/08,07:30,2.3,4.2,4.7,4.1,4.5,1.5,2.2,2.4,��쓌,1.3,��
2014/08/08,07:40,2.3,4.2,4.7,4.1,4.5,1.5,2.2,2.4,��,1.4,��
2014/08/08,07:50,2.3,4.2,4.7,4.1,4.5,1.5,2.2,2.4,��쓌,2.2,��
2014/08/08,08:00,2.3,4.2,4.7,4.1,4.5,1.5,2.2,2.4,��쓌,1.9,��
2014/08/08,08:10,2.3,4.2,4.7,4.1,4.5,1.5,2.2,2.4,��,1.8,��
2014/08/08,08:20,2.3,4.2,4.7,4.1,4.5,1.5,2.2,2.4,��,2.1,��
2014/08/08,08:30,2.3,4.2,4.7,4.1,4.5,1.5,2.2,2.4,��쐼,1.4,��
2014/08/08,08:40,2.3,4.2,4.7,4.1,4.5,1.5,2.2,2.4,��,1.4,��
2014/08/08,08:50,2.3,4.2,4.7,4.1,4.5,1.5,2.2,2.4,-,-,��
2014/08/08,09:00,2.3,4.2,4.7,4.1,4.5,1.5,2.2,2.4,-,-,��
2014/08/08,09:10,2.3,4.2,4.7,4.1,4.5,1.4,2.2,2.4,-,-,��
2014/08/08,09:20,2.3,4.2,4.7,4.1,4.5,1.5,2.2,2.4,-,-,��
2014/08/08,09:30,2.3,4.2,4.7,4.1,4.5,1.5,2.2,2.4,-,-,��
2014/08/08,09:40,2.3,4.2,4.7,4.1,4.5,1.5,2.2,2.4,-,-,��
2014/08/08,09:50,2.3,4.2,4.7,4.1,4.5,1.5,2.2,2.4,-,-,��
2014/08/08,10:00,2.3,4.2,4.7,4.1,4.5,1.5,2.2,2.4,-,-,��
2014/08/08,10:10,2.3,4.2,4.7,4.1,4.5,1.5,2.2,2.4,-,-,��
2014/08/08,10:20,2.3,4.2,4.7,4.1,4.5,1.5,2.2,2.4,-,-,��
2014/08/08,10:30,2.3,4.2,4.7,4.1,4.5,1.5,2.2,2.4,-,-,��
2014/08/08,10:40,2.3,4.2,4.7,4.1,4.5,1.5,2.2,2.4,-,-,��
2014/08/08,10:50,2.3,4.2,4.7,4.1,4.5,1.5,2.2,2.4,-,-,��
2014/08/08,11:00,2.3,4.2,4.7,4.1,4.5,1.5,2.2,2.4,-,-,��
2014/08/08,11:10,2.3,4.2,4.7,4.1,4.5,1.5,2.2,2.4,-,-,��
2014/08/08,11:20,2.3,4.2,4.7,4.1,4.5,1.5,2.2,2.4,-,-,��
2014/08/08,11:30,2.3,4.2,4.7,4.1,4.5,1.5,2.2,2.4,-,-,��
2014/08/08,11:40,2.3,4.2,4.7,4.1,4.5,1.5,2.2,2.4,-,-,��
2014/08/08,11:50,2.3,4.2,4.7,4.1,4.5,1.5,2.2,2.4,-,-,��
2014/08/08,12:00,2.3,4.2,4.7,4.1,4.5,1.5,2.2,2.4,-,-,��
2014/08/08,12:10,2.3,4.2,4.7,4.1,4.5,1.5,2.2,2.4,-,-,��
2014/08/08,12:20,2.3,4.2,4.7,4.1,4.5,1.5,2.2,2.4,-,-,��
2014/08/08,12:30,2.3,4.2,4.7,4.1,4.5,1.5,2.2,2.4,-,-,��
2014/08/08,12:40,2.3,4.2,4.7,4.1,4.5,1.5,2.2,2.4,-,-,��
2014/08/08,12:50,2.3,4.2,4.7,4.1,4.5,1.5,2.2,2.4,-,-,��
2014/08/08,13:00,2.3,4.2,4.7,4.1,4.5,1.5,2.2,2.4,-,-,��
2014/08/08,13:10,2.3,4.2,4.7,4.1,4.5,1.6,2.2,2.4,-,-,��
2014/08/08,13:20,2.3,4.2,4.7,4.1,4.5,1.6,2.2,2.4,-,-,��
2014/08/08,13:30,2.3,4.2,4.7,4.1,4.5,1.6,2.2,2.4,-,-,�L
2014/08/08,13:40,2.3,4.2,4.7,4.1,4.5,1.6,2.2,2.4,-,-,�L
2014/08/08,13:50,2.3,4.2,4.7,4.1,4.5,1.6,2.2,2.4,-,-,�L
2014/08/08,14:00,2.3,4.2,4.7,4.1,4.4,1.6,2.2,2.4,-,-,�L
2014/08/08,14:10,2.3,4.1,4.7,4.1,4.4,1.5,2.2,2.4,-,-,�L
2014/08/08,14:20,2.3,4.1,4.7,4.1,4.4,1.5,2.2,2.4,-,-,�L
2014/08/08,14:30,2.3,4.1,4.7,4.1,4.4,1.5,2.2,2.4,-,-,�L
2014/08/08,14:40,2.3,4.1,4.7,4.1,4.4,1.6,2.2,2.4,-,-,��
2014/08/08,14:50,2.3,4.1,4.7,4.1,4.4,1.6,2.2,2.4,-,-,�L
2014/08/08,15:00,2.3,4.1,4.7,4.1,4.4,1.6,2.2,2.4,-,-,�L
2014/08/08,15:10,2.3,4.1,4.7,4.1,4.4,1.6,2.2,2.4,-,-,�L
2014/08/08,15:20,2.3,4.1,4.7,4.1,4.4,1.6,2.2,2.4,-,-,�L
2014/08/08,15:30,2.3,4.1,4.7,4.1,4.4,1.6,2.2,2.4,-,-,�L
2014/08/08,15:40,2.3,4.1,4.7,4.1,4.4,1.6,2.2,2.4,-,-,�L
2014/08/08,15:50,2.3,4.1,4.7,4.1,4.4,1.6,2.2,2.4,-,-,��
2014/08/08,16:00,2.3,4.1,4.7,4.1,4.4,1.6,2.2,2.4,-,-,��
2014/08/08,16:10,2.3,4.1,4.7,4.1,4.4,1.6,2.2,2.4,-,-,��
2014/08/08,16:20,2.3,4.1,4.7,4.1,4.4,1.6,2.2,2.4,-,-,��
2014/08/08,16:30,2.3,4.1,4.7,4.1,4.4,1.6,2.2,2.4,-,-,��
2014/08/08,16:40,2.3,4.1,4.7,4.1,4.4,1.6,2.2,2.4,-,-,��
2014/08/08,16:50,2.3,4.1,4.7,4.1,4.4,1.6,2.2,2.4,��,2.9,��
2014/08/08,17:00,2.3,4.1,4.7,4.1,4.4,1.6,2.2,2.4,��,3.0,��
2014/08/08,17:10,2.3,4.1,4.7,4.1,4.4,1.6,2.2,2.4,��,3.4,��
2014/08/08,17:20,2.3,4.1,4.7,4.1,4.4,1.6,2.2,2.4,��쓌,1.8,��
2014/08/08,17:30,2.3,4.1,4.7,4.1,4.4,1.6,2.2,2.4,��쓌,2.3,��
2014/08/08,17:40,2.3,4.1,4.7,4.1,4.4,1.6,2.2,2.4,��쓌,2.1,��
2014/08/08,17:50,2.3,4.1,4.7,4.1,4.4,1.6,2.2,2.4,��쓌,1.7,��
2014/08/08,18:00,2.3,4.1,4.7,4.1,4.4,1.6,2.2,2.4,�쓌,1.4,��
2014/08/08,18:10,2.3,4.1,4.7,4.1,4.4,1.6,2.2,2.4,�k��,0.8,�L
2014/08/08,18:20,2.3,4.1,4.6,4.1,4.4,1.6,2.2,2.4,�k�k��,1.2,�L
2014/08/08,18:30,2.3,4.1,4.6,4.1,4.4,1.6,2.2,2.4,�k�k��,1.2,�L
2014/08/08,18:40,2.3,4.1,4.6,4.1,4.4,1.6,2.2,2.4,�k,2.3,�L
2014/08/08,18:50,2.3,4.0,4.6,4.0,4.4,1.6,2.2,2.4,�k,3.9,�L
2014/08/08,19:00,2.3,4.0,4.6,4.0,4.3,1.6,2.2,2.4,�k,5.0,�L
2014/08/08,19:10,2.3,4.0,4.6,4.0,4.3,1.6,2.2,2.4,�k,5.7,�L
2014/08/08,19:20,2.2,4.0,4.6,4.0,4.3,1.5,2.2,2.4,�k,4.9,�L
2014/08/08,19:30,2.3,4.0,4.6,4.0,4.3,1.5,2.2,2.4,�k,3.0,�L
2014/08/08,19:40,2.3,4.0,4.5,4.0,4.3,1.5,2.1,2.4,�k,3.1,�L
2014/08/08,19:50,2.2,4.0,4.6,4.0,4.3,1.5,2.1,2.4,�k,3.7,�L
2014/08/08,20:00,2.2,4.0,4.5,4.0,4.3,1.5,2.1,2.4,�k��,2.8,�L
2014/08/08,20:10,2.2,4.0,4.5,4.0,4.3,1.5,2.1,2.4,�k��,4.9,�L
2014/08/08,20:20,2.2,3.9,4.5,4.0,4.3,1.5,2.1,2.3,���k��,9.6,�L
2014/08/08,20:30,2.2,3.9,4.5,4.0,4.3,1.5,2.1,2.3,���k��,7.4,�L
2014/08/08,20:40,2.2,3.9,4.5,4.0,4.2,1.5,2.1,2.3,�k��,7.9,�L
2014/08/08,20:50,2.2,3.9,4.5,4.0,4.2,1.5,2.1,2.4,���k��,8.6,�L
2014/08/08,21:00,2.2,3.9,4.5,4.0,4.3,1.5,2.1,2.3,���k��,10.2,�L
2014/08/08,21:10,2.2,3.9,4.5,4.0,4.3,1.5,2.1,2.4,�k��,9.1,�L
2014/08/08,21:20,2.2,3.9,4.5,4.0,4.3,1.5,2.1,2.4,�k��,8.8,�L
2014/08/08,21:30,2.2,3.9,4.5,4.0,4.3,1.5,2.1,2.3,���k��,8.9,�L
2014/08/08,21:40,2.2,3.9,4.5,4.0,4.3,1.5,2.1,2.4,���k��,7.9,��
2014/08/08,21:50,2.2,3.9,4.5,4.0,4.3,1.5,2.1,2.3,���k��,6.6,��
2014/08/08,22:00,2.2,3.9,4.5,4.0,4.3,1.5,2.1,2.3,�k��,5.5,��
2014/08/08,22:10,2.2,4.0,4.5,4.0,4.3,1.5,2.1,2.4,���k��,6.6,��
2014/08/08,22:20,2.2,4.0,4.5,4.0,4.3,1.5,2.1,2.3,�k��,10.1,�L
2014/08/08,22:30,2.2,4.0,4.5,4.0,4.3,1.5,2.1,2.4,�k��,6.3,�L
2014/08/08,22:40,2.2,4.0,4.5,4.0,4.3,1.5,2.1,2.3,�k��,5.7,�L
2014/08/08,22:50,2.2,4.0,4.5,4.0,4.3,1.5,2.1,2.4,�k,4.1,�L
2014/08/08,23:00,2.2,4.0,4.5,4.0,4.3,1.5,2.1,2.4,�k��,5.4,�L
2014/08/08,23:10,2.2,4.0,4.5,4.0,4.3,1.5,2.1,2.4,�k��,6.3,�L
2014/08/08,23:20,2.2,4.0,4.5,4.0,4.3,1.5,2.1,2.3,���k��,9.3,�L
2014/08/08,23:30,2.2,3.9,4.5,3.9,4.2,1.5,2.1,2.4,���k��,7.8,�L
2014/08/08,23:40,2.2,3.9,4.5,3.9,4.2,1.5,2.1,2.3,���k��,11.6,�L
2014/08/08,23:50,2.2,3.9,4.5,3.9,4.2,1.5,2.1,2.4,�k��,7.7,�L
